Weather History for KBRD - June, 2014

Change the Weather History Date:

Saturday, June 7, 2014

  Actual Average Record
Temperature  
Mean Temperature 63 °F -  
Max Temperature 73 °F 75 °F 98 °F (2011)
Min Temperature 51 °F 49 °F 34 °F (1998)
Degree Days  
Heating Degree Days 2    
Growing Degree Days 13 (Base 50)    
Moisture  
Dew Point 46 °F    
Average Humidity 57    
Maximum Humidity 80    
Minimum Humidity 30    
Precipitation  
Precipitation 0.14 in - - ()
Sea Level Pressure  
Sea Level Pressure 30.05 in    
Wind  
Wind Speed 9 mph (NNE)    
Max Wind Speed 13 mph    
Max Gust Speed 21 mph    
Visibility 10 miles    
Events Rain    
Averages and records for this station are not official NWS values.
T = Trace of Precipitation, MM = Missing Value Source: NWS Daily Summary

Daily Weather History Graph

Daily Weather History Graph

Search for Another Location

Airport or City:

Trip Planner

Search our weather history database for the weather conditions in past years. The results will help you decide how hot, cold, wet, or windy it might be!

Date:

Astronomy

Jun. 07, 2014 Rise Set
Actual Time 5:24 AM CDT 9:06 PM CDT
Civil Twilight 4:46 AM CDT 9:44 PM CDT
Nautical Twilight 3:54 AM CDT 10:36 PM CDT
Astronomical Twilight 2:43 AM CDT 11:48 PM CDT
Moon 3:06 PM CDT (6/7) 2:07 AM CDT (6/7)
Length of Visible Light 16h 58m
Length of Day
15h 41m
Waxing Gibbous, 68% of the Moon is Illuminated
Jun 7
Waxing Gibbous
Jun 12
Full
Jun 19
Last Quarter
Jun 27
New
Jul 5
First Quarter

Hourly Weather History & Observations

Time (CDT) Temp. Dew Point Humidity Pressure Visibility Wind Dir Wind Speed Gust Speed Precip Events Conditions
12:53 AM 64.0 °F 46.9 °F 54% 30.02 in 10.0 mi North 9.2 mph - 0.00 in Rain Light Rain
1:53 AM 62.1 °F 50.0 °F 65% 29.99 in 10.0 mi North 9.2 mph - 0.00 in   Overcast
2:53 AM 62.1 °F 48.9 °F 62% 30.03 in 10.0 mi North 11.5 mph 20.7 mph 0.00 in Rain Light Rain
3:53 AM 57.0 °F 50.0 °F 77% 30.04 in 10.0 mi North 8.1 mph 20.7 mph 0.05 in Rain Light Rain
4:53 AM 55.9 °F 48.9 °F 77% 30.06 in 6.0 mi North 10.4 mph - 0.02 in Rain Light Rain
5:53 AM 55.0 °F 48.9 °F 80% 30.08 in 10.0 mi NE 8.1 mph - 0.07 in Rain Light Rain
6:53 AM 55.0 °F 48.9 °F 80% 30.06 in 10.0 mi NNE 9.2 mph - 0.00 in Rain Light Rain
7:53 AM 55.9 °F 48.0 °F 75% 30.07 in 10.0 mi NE 9.2 mph - 0.00 in   Overcast
10:53 AM 60.1 °F 48.9 °F 67% 30.08 in 10.0 mi NNE 5.8 mph - N/A   Overcast
11:53 AM 63.0 °F 48.0 °F 58% 30.08 in 10.0 mi NE 8.1 mph - N/A   Mostly Cloudy
12:53 PM 66.9 °F 46.9 °F 49% 30.07 in 10.0 mi NE 8.1 mph - N/A   Partly Cloudy
1:53 PM 68.0 °F 45.0 °F 43% 30.05 in 10.0 mi NNE 12.7 mph 20.7 mph N/A   Partly Cloudy
2:53 PM 69.1 °F 43.0 °F 39% 30.04 in 10.0 mi North 12.7 mph 19.6 mph N/A   Partly Cloudy
3:53 PM 71.1 °F 43.0 °F 36% 30.04 in 10.0 mi NNW 9.2 mph - N/A   Partly Cloudy
4:53 PM 72.0 °F 39.9 °F 31% 30.04 in 10.0 mi NNW 11.5 mph - N/A   Scattered Clouds
5:53 PM 72.0 °F 39.0 °F 30% 30.04 in 10.0 mi North 11.5 mph 19.6 mph N/A   Clear
6:53 PM 71.1 °F 37.9 °F 30% 30.04 in 10.0 mi NNE 10.4 mph - N/A   Clear
7:53 PM 71.1 °F 37.9 °F 30% 30.05 in 10.0 mi North 5.8 mph - N/A   Clear
8:53 PM 64.9 °F 45.0 °F 48% 30.06 in 10.0 mi Calm Calm - N/A   Clear
9:53 PM 57.9 °F 46.9 °F 67% 30.08 in 10.0 mi Calm Calm - N/A   Clear
10:53 PM 54.0 °F 45.0 °F 72% 30.09 in 10.0 mi Calm Calm - N/A   Clear
11:53 PM 51.1 °F 45.0 °F 80% 30.10 in 10.0 mi Calm Calm - N/A   Clear